Weather History for Buffalo, WY

Change the Weather History Date:

Friday, September 13, 2013

  Actual Average Record
Temperature  
Mean Temperature 64 °F 60 °F  
Max Temperature 72 °F 73 °F 91 °F (2006)
Min Temperature 56 °F 46 °F 33 °F (1999)
Degree Days  
Heating Degree Days 1 7  
Month to date heating degree days 2 67  
Since 1 July heating degree days 3 132  
Cooling Degree Days 0 2  
Month to date cooling degree days 85 34  
Year to date cooling degree days 699 480  
Growing Degree Days 14 (Base 50)    
Moisture  
Dew Point 56 °F    
Average Humidity 73    
Maximum Humidity 93    
Minimum Humidity 53    
Precipitation  
Precipitation 0.05 in 0.04 in 0.39 in (1998)
Month to date precipitation 0.98 0.49  
Year to date precipitation 5.40 10.76  
Sea Level Pressure  
Sea Level Pressure 29.90 in    
Wind  
Wind Speed 12 mph (SSE)    
Max Wind Speed 23 mph    
Max Gust Speed 29 mph    
Visibility 10 miles    
Events Rain    
T = Trace of Precipitation, MM = Missing Value Source: NWS Daily Summary

Daily Weather History Graph

Daily Weather History Graph

Search for Another Location

Airport:

Trip Planner

Search our weather history database for the weather conditions in past years. The results will help you decide how hot, cold, wet, or windy it might be!

Date:

Astronomy

Sep. 13, 2013 Rise Set
Actual Time 6:43 AM MDT 7:20 PM MDT
Civil Twilight 6:14 AM MDT 7:49 PM MDT
Nautical Twilight 5:39 AM MDT 8:24 PM MDT
Astronomical Twilight 5:03 AM MDT 9:00 PM MDT
Moon 3:22 PM MDT (9/13) 12:06 AM MDT (9/13)
Length of Visible Light 13h 35m
Length of Day
12h 36m
Waxing Gibbous, 62% of the Moon is Illuminated
Sep 13
Waxing Gibbous
Sep 19
Full
Sep 26
Last Quarter
Oct 4
New
Oct 11
First Quarter

Hourly Weather History & Observations

Time (MDT) Temp. Dew Point Humidity Pressure Visibility Wind Dir Wind Speed Gust Speed Precip Events Conditions
12:53 AM 61.0 °F 53.1 °F 75% 30.06 in 10.0 mi SSE 9.2 mph - N/A   Overcast
1:53 AM 60.1 °F 52.0 °F 75% 30.04 in 10.0 mi South 6.9 mph - N/A   Scattered Clouds
2:53 AM 59.0 °F 52.0 °F 78% 30.04 in 10.0 mi South 10.4 mph - N/A   Clear
3:53 AM 59.0 °F 52.0 °F 78% 30.02 in 10.0 mi SSE 10.4 mph - N/A   Clear
4:53 AM 57.9 °F 52.0 °F 81% 29.99 in 10.0 mi SSE 13.8 mph - N/A   Clear
5:53 AM 59.0 °F 52.0 °F 78% 29.98 in 10.0 mi SSE 11.5 mph - N/A   Clear
6:53 AM 60.1 °F 52.0 °F 75% 29.97 in 10.0 mi SSE 19.6 mph - N/A   Overcast
7:53 AM 60.1 °F 52.0 °F 75% 29.96 in 10.0 mi SSE 15.0 mph - N/A   Overcast
8:53 AM 62.1 °F 53.1 °F 72% 29.94 in 10.0 mi SSE 17.3 mph 23.0 mph N/A   Overcast
9:53 AM 69.1 °F 54.0 °F 58% 29.90 in 10.0 mi SSE 20.7 mph 27.6 mph N/A   Overcast
10:53 AM 68.0 °F 53.1 °F 59% 29.89 in 10.0 mi SSE 15.0 mph - N/A   Mostly Cloudy
11:53 AM 70.0 °F 54.0 °F 57% 29.87 in 10.0 mi SSE 19.6 mph 23.0 mph N/A   Scattered Clouds
12:53 PM 70.0 °F 53.1 °F 55% 29.85 in 10.0 mi SSE 19.6 mph 26.5 mph N/A   Overcast
1:53 PM 71.1 °F 54.0 °F 55% 29.83 in 10.0 mi South 18.4 mph 23.0 mph 0.00 in   Overcast
2:53 PM 72.0 °F 54.0 °F 53% 29.81 in 10.0 mi SSE 16.1 mph - N/A   Overcast
3:53 PM 66.0 °F 57.0 °F 73% 29.82 in 10.0 mi SSE 18.4 mph 25.3 mph 0.00 in Rain Light Rain
4:53 PM 63.0 °F 60.1 °F 90% 29.83 in 8.0 mi SSE 15.0 mph - 0.02 in Rain Light Rain
5:08 PM 62.6 °F 60.8 °F 94% 29.95 in 6.0 mi SSE 11.5 mph - 0.01 in Rain Light Rain
5:53 PM 63.0 °F 61.0 °F 93% 29.82 in 6.0 mi SSE 5.8 mph - 0.03 in Rain Light Rain
6:15 PM 62.6 °F 60.8 °F 94% 29.94 in 10.0 mi Calm Calm - 0.00 in   Mostly Cloudy
6:30 PM 62.6 °F 60.8 °F 94% 29.93 in 10.0 mi East 3.5 mph - 0.00 in   Mostly Cloudy
6:53 PM 63.0 °F 61.0 °F 93% 29.80 in 10.0 mi Calm Calm - 0.00 in   Mostly Cloudy
7:35 PM 62.6 °F 60.8 °F 94% 29.93 in 10.0 mi Calm Calm - N/A   Overcast
7:50 PM 62.6 °F 60.8 °F 94% 29.94 in 10.0 mi NNW 3.5 mph - N/A   Overcast
7:53 PM 62.1 °F 60.1 °F 93% 29.81 in 10.0 mi NNW 3.5 mph - N/A   Overcast
8:23 PM 62.6 °F 60.8 °F 94% 29.94 in 10.0 mi North 9.2 mph - N/A   Overcast
8:53 PM 60.1 °F 57.9 °F 93% 29.82 in 10.0 mi North 12.7 mph 21.9 mph N/A   Overcast
9:13 PM 60.8 °F 57.2 °F 88% 29.94 in 10.0 mi North 11.5 mph 24.2 mph N/A   Overcast
9:53 PM 59.0 °F 55.0 °F 87% 29.80 in 10.0 mi NNW 10.4 mph - N/A   Overcast
10:32 PM 59.0 °F 53.6 °F 82% 29.93 in 10.0 mi NNW 12.7 mph - N/A   Overcast
10:53 PM 59.0 °F 54.0 °F 83% 29.79 in 10.0 mi NW 9.2 mph - N/A   Overcast
11:53 PM 57.9 °F 53.1 °F 84% 29.79 in 10.0 mi Calm Calm - N/A   Overcast